Regional Weather Roundup
Issued by NWS

Home | Current Version | Previous Version | Text Only | Print | Product List | Glossary On
Versions: 1 2 3 4 5 6 7 8 9 10 11 12 13 14 15 16 17 18 19 20 21 22 23 24 25 26 27 28 29 30 31 32 33 34 35 36 37 38 39 40 41 42 43 44 45 46 47 48 49 50
000
ASUS44 KOUN 260910
RWROK

WEATHER ROUNDUP FOR OKLAHOMA
NATIONAL WEATHER SERVICE NORMAN OK
400 AM CDT TUE MAY 26 2015

NOTE: "FAIR" INDICATES FEW OR NO CLOUDS BELOW 12,000 FEET WITH NO
      SIGNIFICANT WEATHER AND/OR OBSTRUCTIONS TO VISIBILITY.

OKZ001>007-009>012-014-015-017-261000-
NORTHWEST OKLAHOMA AND THE PANHANDLE

CITY           SKY/WX    TMP DP  RH WIND       PRES   REMARKS
GAGE           PTCLDY    50  48  93 CALM      29.89R
GUYMON         CLEAR     52  49  89 SW7       29.90R
ENID/WOODRING  CLEAR     55  55 100 W3        29.87R FOG
$$

OKZ016-021>023-033>039-044-045-261000-
SOUTHWEST OKLAHOMA

CITY           SKY/WX    TMP DP  RH WIND       PRES   REMARKS
LAWTON/REGL    FOG       57  56  96 E7        29.88R VSB 1/4
LAWTON/FT SILL FOG       55  55 100 SE2       29.87S VSB 1/4
FREDERICK      CLEAR     57  55  93 SE7       29.86R
CLINTON        CLEAR     54  51  90 S7        29.88F
HOBART         CLEAR     55  53  93 E5        29.88R
$$

OKZ018>020-024>031-261000-
CENTRAL OKLAHOMA

CITY           SKY/WX    TMP DP  RH WIND       PRES   REMARKS
OKLAHOMA CITY  PTCLDY    54  53  97 N6        29.89R
OKC/WILEY POST CLEAR     56  54  93 CALM      29.88R FOG
OKC/TINKER AFB DRIZZLE   55  54  94 CALM      29.89R FOG
STILLWATER     CLEAR     56  54  93 CALM      29.85F
GUTHRIE        CLEAR     54  53  97 S6        29.88R FOG
$$

OKZ008-013-054>072-261000-
NORTHEAST OKLAHOMA

CITY           SKY/WX    TMP DP  RH WIND       PRES   REMARKS
TULSA          MOCLDY    61  59  93 S9        29.86R
TULSA/JONES    MOCLDY    58  57  97 CALM      29.87R
PONCA CITY     CLOUDY    59  58  96 CALM      29.86R
BARTLESVILLE   PTCLDY    59  59 100 CALM      29.84S
MUSKOGEE       CLOUDY    61  59  93 S9        29.88R
$$

OKZ032-040>043-046>053-073>077-261000-
SOUTH CENTRAL/SOUTHEAST OKLAHOMA

CITY           SKY/WX    TMP DP  RH WIND       PRES   REMARKS
ARDMORE/DWNTWN CLOUDY    59  59 100 CALM      29.90R FOG
MCALESTER      CLOUDY    63  61  93 S5        29.90R
$$




USA.gov is the U.S. government's official web portal to all federal, state and local government web resources and services.